Weather Roundup
Issued by NWS Springfield, MO

Home | Current Version | Previous Version | Text Only | Print | Product List | Glossary On
Versions: 1 2 3 4 5 6 7 8 9 10 11 12 13 14 15 16 17 18 19 20 21 22 23 24 25 26 27 28 29 30 31 32 33 34 35 36 37 38 39 40 41 42 43 44 45 46 47 48 49 50
625
NZUS99 KSGF 070407
HRRSGF

HOURLY WEATHER
NATIONAL WEATHER SERVICE SPRINGFIELD MO
1000 PM CST TUE DEC 06 2016

......SGF CWA......

CITY           SKY/WX    TMP DP  RH WIND       PRES   REMARKS
SPRINGFIELD    PTCLDY    32  19  58 NW3       30.11R
JOPLIN         PTCLDY    29  22  75 N5        30.14R WCI  24
WEST PLAINS    PTCLDY    35  23  61 N5        30.10F WCI  31
ROLLA          CLOUDY    31  19  61 NW9       30.09R WCI  23
OSAGE BEACH    MOCLDY    33  18  53 VRB3      30.13F
BRANSON        CLOUDY    32  25  74 N5        30.10S WCI  27

......SURROUNDING SGF CWA......

CITY           SKY/WX    TMP DP  RH WIND       PRES   REMARKS
CHANUTE        CLOUDY    30  24  78 CALM      30.15R
PARSONS        CLOUDY    34  19  54 NE3       30.15S
COFFEYVILLE    CLOUDY    34  21  59 NE5       30.15R WCI  30
EMPORIA        CLOUDY    28  20  71 W3        30.13S
GROVE OK       PTCLDY    34  27  75 CALM      30.13F
ROGERS AR      PTCLDY    33  22  63 N5        30.11S WCI  29
SILOAM SPRINGS PTCLDY    34  21  60 NE6       30.09F WCI  29
HARRISON AR    CLOUDY    35  27  72 VRB5      30.09F WCI  31
NEAR YELLVILLE CLOUDY    39  25  56 N7        30.08S WCI  34

......KANSAS AND MISSOURI......

CITY           SKY/WX    TMP DP  RH WIND       PRES   REMARKS
KANSAS CTY INT PTCLDY    28  14  55 NW6       30.14R WCI  22
DOWNTOWN KC    PTCLDY    32  18  56 NW3       30.14S
COLUMBIA       PTCLDY    32  18  56 NW12      30.11F WCI  23
SEDALIA        PTCLDY    31  17  56 NW8       30.13F WCI  23
ST JOSEPH      PTCLDY    26  17  68 W6        30.16R WCI  19
ST LOUIS       MOCLDY    35  21  56 NW8       30.11R WCI  29
SPIRIT OF STL  PTCLDY    31  23  72 W6        30.13R WCI  25
KIRKSVILLE     PTCLDY    29  15  56 W10       30.11R WCI  20
WICHITA        CLOUDY    35  20  54 CALM      30.11S
TOPEKA         CLOUDY    27  19  72 CALM      30.14F
OLATHE         PTCLDY    31  14  49 NW7       30.13R WCI  24

......TENNESSEE......

CITY           SKY/WX    TMP DP  RH WIND       PRES   REMARKS
MEMPHIS        MOCLDY    43  42  97 NE5       30.06F
NASHVILLE      CLOUDY    43  36  76 NW7       30.07R

......ARKANSAS.......

CITY           SKY/WX    TMP DP  RH WIND       PRES   REMARKS
FAYETTEVILLE   CLOUDY    35  26  69 CALM      30.10R
FT SMITH       CLOUDY    42  31  64 N5        30.10R
LITTLE ROCK    CLOUDY    43  40  89 N8        30.10R

......OKLAHOMA.......

CITY           SKY/WX    TMP DP  RH WIND       PRES   REMARKS
TULSA          CLOUDY    39  21  48 NE6       30.12S WCI  35
PONCA CITY     CLOUDY    35  20  54 NE7       30.11F WCI  29
MCALESTER      CLOUDY    41  27  57 NE6       30.10F
OKLAHOMA CITY  CLOUDY    37  20  50 NE10      30.08F WCI  30

......IOWA............

CITY           SKY/WX    TMP DP  RH WIND       PRES   REMARKS
DES MOINES     CLEAR     26  13  57 W13       30.06R WCI  15
QUAD CITIES    CLEAR     30  17  58 W16G23    30.01R WCI  19

......ILLINOIS........

CITY           SKY/WX    TMP DP  RH WIND       PRES   REMARKS
QUINCY         PTCLDY    30  19  63 W9        30.10R WCI  22
CHICAGO        CLOUDY    27  19  72 W16G25    29.95R WCI  15




USA.gov is the U.S. government's official web portal to all federal, state and local government web resources and services.